Content
SEND FEEDBACK

Daily
Averages
Monthly
Summary
United States of America

PERRYTON EAST, TEXAS


Home > North America > United States > Texas
Elevation: 2900 feet     Latitude: 36 06N     Longitude: 100 36W

WEATHER
 
SELECT A DAY
Number of Records: 271,375;   Date Range: 7/16/03 - 11/24/14
 
SHARE

PRINT THIS DATA

[ ← Previous Day ]
WEATHER ALMANAC - FEBRUARY 13, 2013
[ Next Day → ]
[ °C ]   °F
Weather ElementAverageHighLow
Temperature28.2 °F39.2 °F (2:55 pm)17.6 °F (6:35 am)
Dewpoint23.6 °F30.2 °F (3:35 pm)15.8 °F (7:55 am)
Humidity83.9 %100 % (12:35 am)61 % (2:55 pm)
Barometer30.02 in30.07 in (9:15 am)29.95 in (5:55 pm)
Wind Speed1.9 mph8.1 mph (12:35 am)
Weather ElementAverage
Visibility9.4 mi
Wind DirectionENE (78.6 °)

Weather ElementTotal
Precipitation---
Heating Degree Days36.6 (Base 65)
Averaged from 70 records on February 13, 2013
WEATHER CONDITIONS BREAKOUT
WIND DIRECTION BREAKOUT
WEATHER BY HOUR - FEBRUARY 13, 2013
[ °C ]   °F
Local TimeTemperatureDewpointHumidityBarometerVisibilityWind DirectionWind SpeedGust SpeedPrecipitationEventsConditions
12:35 AM26.6 °F26.6 °F100 %30.06 in10.0 miSW (230°)8.1 mphClear
12:55 AM28.4 °F26.6 °F93 %30.06 in10.0 miSW (220°)6.9 mphClear
1:15 AM26.6 °F24.8 °F93 %30.06 in10.0 miSW (220°)4.6 mphClear
1:35 AM24.8 °F23.0 °F93 %30.06 in10.0 miCalmClear
1:55 AM24.8 °F23.0 °F93 %30.05 in5.0 miCalmClear
2:15 AM23.0 °F23.0 °F100 %30.05 in7.0 miCalmClear
2:35 AM23.0 °F21.2 °F93 %30.05 in7.0 miCalmClear
2:55 AM23.0 °F21.2 °F93 %30.04 in7.0 miCalmClear
3:15 AM24.8 °F23.0 °F93 %30.03 in10.0 miCalmClear
3:35 AM21.2 °F19.4 °F93 %30.03 in7.0 miNE (40°)4.6 mphClear
3:55 AM21.2 °F19.4 °F93 %30.02 in7.0 miCalmClear
4:15 AM21.2 °F19.4 °F93 %30.02 in7.0 miNNE (30°)4.6 mphClear
4:35 AM19.4 °F17.6 °F93 %30.02 in7.0 miNorth (360°)5.8 mphClear
4:55 AM19.4 °F17.6 °F93 %30.03 in7.0 miNorth (10°)3.5 mphClear
5:15 AM19.4 °F17.6 °F93 %30.03 in7.0 miCalmClear
5:35 AM21.2 °F19.4 °F93 %30.03 in10.0 miCalmClear
5:55 AM19.4 °F17.6 °F93 %30.04 in10.0 miNE (40°)3.5 mphClear
6:15 AM19.4 °F17.6 °F93 %30.04 in10.0 miNE (50°)3.5 mphClear
6:35 AM17.6 °F17.6 °F100 %30.05 in10.0 miCalmClear
6:55 AM19.4 °F17.6 °F93 %30.05 in10.0 miNE (50°)3.5 mphClear
7:15 AM19.4 °F17.6 °F93 %30.05 in10.0 miNNE (20°)3.5 mphClear
7:35 AM19.4 °F17.6 °F93 %30.05 in7.0 miCalmClear
7:55 AM17.6 °F15.8 °F93 %30.05 in7.0 miCalmClear
8:15 AM17.6 °F15.8 °F93 %30.06 in10.0 miCalmClear
8:35 AM19.4 °F15.8 °F86 %30.06 in10.0 miCalmClear
8:55 AM19.4 °F17.6 °F93 %30.06 in7.0 miCalmClear
9:15 AM19.4 °F17.6 °F93 %30.07 in10.0 miCalmClear
9:35 AM23.0 °F19.4 °F86 %30.07 in10.0 miCalmClear
9:55 AM24.8 °F21.2 °F86 %30.07 in10.0 miCalmClear
10:15 AM26.6 °F23.0 °F86 %30.06 in10.0 miCalmClear
10:35 AM28.4 °F23.0 °F80 %30.07 in10.0 miCalmClear
10:55 AM30.2 °F24.8 °F80 %30.07 in10.0 miCalmClear
11:15 AM32.0 °F24.8 °F75 %30.06 in10.0 miCalmClear
11:35 AM32.0 °F24.8 °F75 %30.07 in10.0 miCalmClear
11:55 AM33.8 °F24.8 °F70 %30.07 in10.0 miNNW (330°)5.8 mphClear
12:15 PM33.8 °F26.6 °F75 %30.06 in10.0 miNNW (330°)5.8 mphClear
12:35 PM33.8 °F26.6 °F75 %30.06 in10.0 miNW (320°)6.9 mphClear
12:55 PM33.8 °F26.6 °F75 %30.05 in10.0 miNW (320°)5.8 mphClear
1:15 PM35.6 °F26.6 °F70 %30.03 in10.0 miWest (270°)3.5 mphClear
1:35 PM35.6 °F26.6 °F70 %30.02 in10.0 miWSW (240°)4.6 mphClear
1:55 PM37.4 °F28.4 °F70 %30.01 in10.0 miSW (230°)3.5 mphClear
2:15 PM37.4 °F26.6 °F65 %29.99 in10.0 miCalmClear
2:35 PM37.4 °F26.6 °F65 %29.99 in10.0 miCalmClear
2:55 PM39.2 °F26.6 °F61 %29.98 in10.0 miCalmClear
3:15 PM37.4 °F28.4 °F70 %29.98 in10.0 miCalmClear
3:35 PM37.4 °F30.2 °F75 %29.97 in10.0 miCalmClear
3:55 PM39.2 °F30.2 °F70 %29.97 in10.0 miNorth (10°)3.5 mphClear
4:35 PM37.4 °F30.2 °F75 %29.97 in10.0 miNNW (330°)3.5 mphClear
4:55 PM37.4 °F30.2 °F75 %29.97 in10.0 miCalmClear
5:15 PM39.2 °F30.2 °F70 %29.97 in10.0 miCalmClear
5:35 PM37.4 °F30.2 °F75 %29.96 in10.0 miCalmClear
5:55 PM37.4 °F28.4 °F70 %29.95 in10.0 miWSW (240°)4.6 mphClear
6:15 PM37.4 °F26.6 °F65 %29.96 in10.0 miWSW (240°)6.9 mphClear
6:35 PM35.6 °F26.6 °F70 %29.96 in10.0 miWSW (240°)4.6 mphClear
6:55 PM35.6 °F26.6 °F70 %29.96 in10.0 miCalmClear
7:15 PM33.8 °F26.6 °F75 %29.97 in10.0 miCalmClear
7:35 PM33.8 °F26.6 °F75 %29.97 in10.0 miCalmClear
7:55 PM32.0 °F28.4 °F87 %29.97 in10.0 miCalmClear
8:15 PM32.0 °F26.6 °F80 %29.98 in10.0 miCalmClear
8:35 PM30.2 °F26.6 °F86 %29.98 in10.0 miCalmClear
8:55 PM30.2 °F26.6 °F86 %29.98 in10.0 miCalmClear
9:15 PM30.2 °F26.6 °F86 %29.99 in10.0 miCalmClear
9:35 PM26.6 °F24.8 °F93 %29.99 in10.0 miCalmClear
9:55 PM26.6 °F24.8 °F93 %30.00 in10.0 miCalmClear
10:15 PM26.6 °F24.8 °F93 %30.01 in10.0 miWSW (240°)3.5 mphClear
10:35 PM26.6 °F23.0 °F86 %30.01 in10.0 miSSW (210°)4.6 mphClear
10:55 PM24.8 °F23.0 °F93 %30.01 in10.0 miSSW (210°)3.5 mphClear
11:15 PM24.8 °F23.0 °F93 %30.01 in10.0 miWSW (250°)3.5 mphClear
11:35 PM26.6 °F23.0 °F86 %30.01 in10.0 miSW (220°)4.6 mphClear
11:55 PM26.6 °F23.0 °F86 %30.01 in10.0 miCalmClear
Hourly data recorded from KHHF, located miles away from Perryton East, Texas







STORIES FROM OUR PARTNERS